Weather in Chemerna

Russia / Bryansk Oblast     52°47′48″N   32°12′34″E
temp.,
°C
wind,
m/s
gust,
m/s
humid.,
%
clouds,
%
prec.,
mm/h
press.,
hPa
HPBL,
m
16 april, fri
fri1600:00+8ene22895 0.0 101213
03:00+7ene338986 0.0 101135
06:00+8ene489052 0.4 1011201
09:00+10ese798047 0.4 1012764
12:00+11ese8106491 0.3 10131386
15:00+12ese696490 0.7 10131270
18:00+11se686915 0.4 10131151
21:00+7ese488712 0.4 1015235
17 april, sat
sat1700:00+6e369273 0.0 1016117
03:00+6e369353 0.2 1016156
06:00+5ese359518 0.0 1017100
09:00+8ese348084 0.0 1018430
12:00+12e2362100 0.1 10181098
15:00+11e1265100 0.8 1017990
18:00+8wsw4894100 6.8 1016534
21:00+8nne2596100 7.6 1015172
18 april, sun
sun1800:00+7nne4894100 0.0 1014291
03:00+8nne4796100 2.4 1013536
06:00+5nne61094100 0.9 1014625
09:00+4ne71196100 1.1 1015822
12:00+5ene71291100 1.2 10161021
15:00+6ene61187100 1.7 1017979
18:00+7e4882100 0.1 1018783
21:00+5nnw22915 0.1 101818
19 april, mon
mon1900:00+4nne499270 0.0 1018200
03:00+5nne51090100 0.0 1018634
06:00+5n5989100 0.1 1018539
09:00+6nne5891100 0.1 1017806
12:00+6ne5791100 0.1 1017772
15:00+9nne4579100 0.1 1016895
18:00+9nne457820 0.1 1015647
21:00+5ne489618 0.2 1014174
20 april, tue
tue2000:00+5ene36905 0.0 101288
03:00+6ne4993100 0.0 1011243
06:00+6ene71495100 0.1 1008464
09:00+7ne101892100 2.4 10041022
12:00+6ne111892100 6.8 9991122
15:00+6ne101893100 16.6 9951233
18:00+7ene61094100 1.0 993400
21:00+8ene489769 1.2 994245